Zurück zum Katalog

OPS 4682 DEB

AktivPO
NORAD 55121·DEBRIS·🇺🇸 United States

Gestartet Apr 3, 1965 von Vandenberg Space Force Base

Loading…

Nächste Überflüge (nächste 24 Stunden)

TLE

AlterndSource: Space-Track

Epoche: Sep 7, 2026, 13:34 UTC

1 55121U 65027HL  26250.56575769  .00000355  00000-0  11278-2 0  9993
2 55121  90.2471   8.4930 0039201 112.5634 247.9644 13.01332041464334

Verfolge OPS 4682 DEB in Echtzeit mit AllMySat

Download on the App Store